QPF
0.06 0.05 0.07 0.10 0.15 0.21 0.22 0.25 0.27 0.23 0.13 0.06 0.05 0.03 0.04 0.06 0.08 0.10 0.09 0.08 0.09 0.11 0.13 0.14 0.15 0.15 0.18 0.15 0.20 0.24 0.25 0.24 0.24 0.23 0.22 0.20 0.20 0.18 0.15 0.17 0.17 0.13 0.12
0.07 0.06 0.07 0.12 0.19 0.17 0.17 0.15 0.10 0.12 0.12 0.06 0.07 0.05 0.04 0.06 0.09 0.10 0.11 0.08 0.10 0.11 0.13 0.16 0.18 0.16 0.16 0.15 0.18 0.24 0.28 0.22 0.20 0.22 0.19 0.20 0.22 0.22 0.21 0.20 0.17 0.11 0.10
0.05 0.06 0.08 0.14 0.15 0.11 0.11 0.08 0.05 0.05 0.06 0.05 0.07 0.08 0.07 0.09 0.11 0.12 0.10 0.08 0.10 0.12 0.12 0.12 0.15 0.21 0.18 0.15 0.17 0.24 0.23 0.20 0.23 0.24 0.21 0.18 0.18 0.22 0.20 0.18 0.16 0.11 0.09
0.06 0.06 0.08 0.12 0.11 0.09 0.07 0.06 0.05 0.05 0.05 0.06 0.08 0.17 0.19 0.18 0.17 0.12 0.09 0.08 0.10 0.11 0.12 0.12 0.14 0.20 0.18 0.16 0.19 0.23 0.22 0.20 0.23 0.27 0.25 0.17 0.17 0.18 0.16 0.16 0.15 0.11 0.08
0.04 0.04 0.06 0.09 0.09 0.11 0.11 0.07 0.07 0.06 0.05 0.06 0.09 0.19 0.27 0.25 0.19 0.11 0.12 0.12 0.11 0.11 0.12 0.12 0.15 0.19 0.19 0.17 0.23 0.25 0.25 0.23 0.24 0.29 0.22 0.17 0.20 0.20 0.14 0.13 0.14 0.10 0.08
0.04 0.03 0.03 0.05 0.09 0.12 0.17 0.13 0.09 0.07 0.05 0.06 0.10 0.14 0.20 0.23 0.24 0.19 0.17 0.16 0.14 0.15 0.17 0.15 0.17 0.19 0.21 0.23 0.24 0.26 0.24 0.21 0.22 0.20 0.18 0.15 0.15 0.19 0.15 0.10 0.10 0.09 0.09
0.03 0.03 0.02 0.03 0.06 0.11 0.19 0.25 0.19 0.10 0.07 0.07 0.09 0.12 0.15 0.19 0.22 0.21 0.16 0.18 0.21 0.22 0.22 0.19 0.18 0.21 0.23 0.26 0.28 0.31 0.22 0.20 0.21 0.19 0.21 0.20 0.16 0.16 0.12 0.10 0.09 0.08 0.09
0.02 0.03 0.03 0.03 0.03 0.07 0.14 0.19 0.18 0.13 0.09 0.08 0.06 0.08 0.11 0.19 0.23 0.18 0.19 0.23 0.33 0.34 0.31 0.25 0.23 0.22 0.25 0.33 0.35 0.30 0.21 0.19 0.18 0.18 0.18 0.15 0.12 0.10 0.10 0.10 0.10 0.08 0.08
0.01 0.02 0.03 0.04 0.02 0.05 0.11 0.15 0.16 0.13 0.09 0.08 0.07 0.08 0.14 0.26 0.24 0.17 0.20 0.25 0.32 0.47 0.46 0.32 0.27 0.27 0.33 0.36 0.33 0.28 0.29 0.29 0.21 0.17 0.14 0.13 0.12 0.10 0.10 0.10 0.10 0.09 0.09
0.02 0.02 0.02 0.04 0.04 0.05 0.07 0.12 0.13 0.11 0.10 0.09 0.09 0.10 0.14 0.26 0.35 0.29 0.24 0.24 0.24 0.35 0.51 0.32 0.23 0.21 0.21 0.26 0.26 0.27 0.25 0.25 0.25 0.24 0.20 0.19 0.15 0.13 0.12 0.11 0.10 0.11 0.11
0.03 0.03 0.03 0.03 0.03 0.04 0.05 0.07 0.09 0.08 0.09 0.10 0.11 0.11 0.12 0.19 0.29 0.30 0.24 0.28 0.29 0.39 0.49 0.24 0.17 0.14 0.24 0.22 0.16 0.15 0.15 0.15 0.17 0.17 0.19 0.18 0.15 0.13 0.10 0.08 0.09 0.10 0.09
0.04 0.03 0.03 0.05 0.03 0.02 0.03 0.06 0.09 0.08 0.09 0.11 0.12 0.09 0.09 0.13 0.21 0.24 0.26 0.28 0.34 0.41 0.36 0.19 0.15 0.13 0.26 0.23 0.14 0.12 0.10 0.09 0.09 0.09 0.11 0.09 0.09 0.09 0.08 0.06 0.05 0.05 0.07
0.05 0.06 0.06 0.08 0.06 0.06 0.07 0.06 0.07 0.07 0.07 0.09 0.09 0.11 0.11 0.11 0.16 0.16 0.19 0.21 0.25 0.32 0.25 0.18 0.18 0.18 0.19 0.22 0.17 0.11 0.09 0.08 0.07 0.07 0.07 0.05 0.03 0.04 0.08 0.10 0.07 0.05 0.06
0.07 0.05 0.06 0.04 0.05 0.08 0.06 0.05 0.04 0.04 0.05 0.08 0.11 0.12 0.10 0.11 0.19 0.18 0.14 0.15 0.22 0.27 0.23 0.18 0.18 0.24 0.18 0.14 0.10 0.07 0.07 0.07 0.07 0.07 0.06 0.04 0.02 0.02 0.03 0.05 0.08 0.09 0.08
0.05 0.05 0.05 0.04 0.04 0.06 0.07 0.06 0.03 0.04 0.05 0.07 0.08 0.10 0.12 0.14 0.20 0.21 0.17 0.17 0.23 0.22 0.18 0.15 0.13 0.20 0.23 0.18 0.11 0.08 0.06 0.06 0.07 0.04 0.04 0.03 0.03 0.03 0.03 0.04 0.06 0.12 0.15
0.04 0.04 0.04 0.03 0.03 0.04 0.07 0.08 0.07 0.06 0.06 0.06 0.06 0.06 0.08 0.09 0.15 0.19 0.15 0.15 0.18 0.16 0.13 0.11 0.10 0.11 0.12 0.11 0.10 0.08 0.07 0.07 0.06 0.03 0.03 0.04 0.03 0.03 0.03 0.04 0.04 0.06 0.11
0.03 0.02 0.02 0.02 0.02 0.02 0.04 0.05 0.06 0.06 0.06 0.06 0.05 0.05 0.05 0.06 0.11 0.15 0.14 0.11 0.11 0.08 0.06 0.07 0.08 0.07 0.06 0.06 0.06 0.07 0.07 0.07 0.06 0.04 0.03 0.04 0.04 0.03 0.03 0.02 0.02 0.03 0.04
0.02 0.02 0.02 0.02 0.02 0.02 0.03 0.05 0.05 0.06 0.05 0.05 0.05 0.03 0.04 0.06 0.07 0.09 0.10 0.09 0.08 0.06 0.06 0.07 0.06 0.05 0.06 0.05 0.05 0.05 0.06 0.07 0.06 0.05 0.03 0.05 0.06 0.05 0.04 0.03 0.02 0.02 0.03
0.02 0.01 0.02 0.03 0.03 0.03 0.03 0.04 0.04 0.06 0.05 0.05 0.04 0.03 0.03 0.03 0.03 0.05 0.06 0.07 0.07 0.08 0.07 0.05 0.04 0.05 0.05 0.04 0.04 0.04 0.04 0.05 0.06 0.05 0.05 0.05 0.06 0.06 0.05 0.03 0.03 0.02 0.01
0.01 0.02 0.02 0.03 0.03 0.03 0.04 0.04 0.04 0.05 0.05 0.03 0.03 0.03 0.02 0.01 0.03 0.05 0.04 0.06 0.06 0.06 0.06 0.04 0.04 0.05 0.05 0.04 0.03 0.03 0.03 0.04 0.05 0.04 0.03 0.04 0.05 0.05 0.05 0.04 0.04 0.02 0.01
0.02 0.02 0.04 0.04 0.03 0.04 0.05 0.04 0.04 0.03 0.03 0.02 0.02 0.01 0.01 0.01 0.02 0.03 0.03 0.05 0.06 0.06 0.06 0.05 0.04 0.03 0.04 0.04 0.05 0.04 0.04 0.03 0.03 0.04 0.03 0.03 0.04 0.06 0.07 0.04 0.03 0.02 0.02
0.01 0.03 0.03 0.03 0.03 0.03 0.03 0.03 0.03 0.02 0.01 0.01 0.01 0.02 0.01 0.01 0.01 0.02 0.03 0.03 0.04 0.05 0.06 0.05 0.05 0.04 0.03 0.05 0.07 0.08 0.08 0.05 0.04 0.03 0.03 0.03 0.03 0.05 0.08 0.06 0.03 0.03 0.02
0.01 0.01 0.02 0.04 0.03 0.02 0.02 0.03 0.02 0.02 0.02 0.03 0.03 0.04 0.05 0.03 0.02 0.02 0.03 0.03 0.04 0.03 0.05 0.05 0.04 0.05 0.05 0.06 0.06 0.09 0.12 0.09 0.06 0.04 0.03 0.02 0.03 0.04 0.05 0.06 0.06 0.07 0.06
0.01 0.01 0.04 0.04 0.04 0.03 0.03 0.03 0.03 0.03 0.04 0.04 0.05 0.05 0.07 0.05 0.04 0.03 0.03 0.04 0.05 0.04 0.04 0.04 0.04 0.04 0.05 0.06 0.06 0.06 0.07 0.07 0.07 0.09 0.04 0.02 0.02 0.03 0.03 0.04 0.05 0.08 0.12
0.01 0.01 0.02 0.03 0.03 0.03 0.03 0.03 0.04 0.03 0.04 0.04 0.04 0.03 0.04 0.03 0.03 0.03 0.05 0.07 0.07 0.05 0.03 0.03 0.03 0.03 0.04 0.04 0.04 0.04 0.05 0.06 0.05 0.05 0.05 0.05 0.05 0.04 0.03 0.03 0.05 0.12 0.11
0.01 0.01 0.01 0.02 0.02 0.01 0.02 0.01 0.02 0.03 0.03 0.03 0.04 0.04 0.04 0.04 0.05 0.05 0.04 0.04 0.04 0.03 0.02 0.02 0.02 0.02 0.02 0.03 0.03 0.03 0.03 0.05 0.04 0.05 0.04 0.03 0.03 0.04 0.03 0.02 0.03 0.07 0.05
MSLP
1003.50 1002.07 1000.57 998.98 997.31 995.63 994.07 992.82 992.04 991.90 992.50 993.81 995.67 997.87 1000.13 1002.20 1003.92 1005.18 1006.01 1006.54 1006.90 1007.26 1007.71 1008.29 1008.96 1009.67 1010.30 1010.81 1011.17 1011.41 1011.58 1011.75 1011.99 1012.31 1012.71 1013.15 1013.58 1013.93 1014.20 1014.37 1014.49 1014.59 1014.71
1003.30 1001.76 1000.15 998.46 996.70 994.97 993.39 992.15 991.43 991.37 992.08 993.50 995.47 997.76 1000.09 1002.23 1003.97 1005.26 1006.11 1006.64 1007.03 1007.41 1007.88 1008.48 1009.16 1009.86 1010.48 1010.95 1011.28 1011.47 1011.61 1011.76 1011.99 1012.32 1012.75 1013.21 1013.66 1014.04 1014.33 1014.52 1014.65 1014.76 1014.90
1003.07 1001.53 999.92 998.24 996.51 994.82 993.31 992.15 991.51 991.54 992.32 993.79 995.77 998.05 1000.35 1002.42 1004.11 1005.35 1006.16 1006.68 1007.07 1007.47 1007.98 1008.60 1009.30 1010.01 1010.61 1011.07 1011.37 1011.54 1011.65 1011.79 1012.02 1012.36 1012.80 1013.29 1013.75 1014.15 1014.44 1014.65 1014.79 1014.92 1015.08
1002.88 1001.44 999.94 998.37 996.77 995.22 993.84 992.79 992.25 992.35 993.14 994.57 996.48 998.64 1000.80 1002.73 1004.29 1005.42 1006.16 1006.65 1007.05 1007.48 1008.02 1008.68 1009.41 1010.12 1010.72 1011.17 1011.44 1011.60 1011.70 1011.84 1012.08 1012.43 1012.89 1013.38 1013.85 1014.25 1014.55 1014.76 1014.91 1015.06 1015.25
1002.80 1001.55 1000.25 998.88 997.49 996.12 994.91 993.99 993.54 993.66 994.41 995.74 997.48 999.44 1001.38 1003.10 1004.48 1005.48 1006.15 1006.61 1007.02 1007.48 1008.06 1008.76 1009.51 1010.23 1010.82 1011.25 1011.51 1011.66 1011.76 1011.91 1012.16 1012.53 1013.00 1013.50 1013.97 1014.37 1014.66 1014.87 1015.03 1015.19 1015.41
1002.91 1001.91 1000.87 999.77 998.61 997.47 996.43 995.64 995.24 995.34 996.00 997.15 998.67 1000.37 1002.05 1003.53 1004.72 1005.58 1006.18 1006.63 1007.05 1007.55 1008.17 1008.89 1009.65 1010.36 1010.93 1011.33 1011.57 1011.71 1011.82 1011.99 1012.26 1012.65 1013.14 1013.65 1014.12 1014.51 1014.79 1014.99 1015.15 1015.32 1015.54
1003.24 1002.53 1001.78 1000.96 1000.07 999.14 998.28 997.59 997.22 997.26 997.78 998.72 999.98 1001.40 1002.80 1004.05 1005.05 1005.79 1006.33 1006.77 1007.22 1007.75 1008.39 1009.12 1009.86 1010.53 1011.06 1011.42 1011.63 1011.75 1011.87 1012.06 1012.36 1012.79 1013.30 1013.82 1014.30 1014.69 1014.96 1015.14 1015.28 1015.44 1015.67
1003.78 1003.36 1002.91 1002.37 1001.73 1001.01 1000.30 999.70 999.34 999.31 999.66 1000.39 1001.39 1002.53 1003.67 1004.69 1005.52 1006.16 1006.66 1007.10 1007.56 1008.12 1008.76 1009.47 1010.17 1010.78 1011.23 1011.53 1011.70 1011.80 1011.92 1012.13 1012.46 1012.93 1013.47 1014.03 1014.52 1014.91 1015.17 1015.34 1015.46 1015.60 1015.80
1004.47 1004.32 1004.13 1003.85 1003.44 1002.91 1002.34 1001.82 1001.46 1001.36 1001.57 1002.10 1002.86 1003.76 1004.67 1005.50 1006.19 1006.75 1007.21 1007.64 1008.11 1008.66 1009.29 1009.94 1010.57 1011.09 1011.46 1011.68 1011.80 1011.87 1011.99 1012.21 1012.58 1013.08 1013.67 1014.25 1014.77 1015.17 1015.43 1015.59 1015.69 1015.80 1015.96
1005.22 1005.29 1005.33 1005.26 1005.04 1004.69 1004.24 1003.80 1003.47 1003.33 1003.44 1003.81 1004.39 1005.09 1005.81 1006.49 1007.06 1007.54 1007.96 1008.37 1008.83 1009.35 1009.93 1010.52 1011.05 1011.48 1011.76 1011.90 1011.96 1012.00 1012.11 1012.34 1012.73 1013.26 1013.87 1014.48 1015.03 1015.45 1015.73 1015.89 1015.98 1016.05 1016.18
1005.93 1006.17 1006.38 1006.47 1006.41 1006.21 1005.89 1005.55 1005.27 1005.13 1005.20 1005.48 1005.93 1006.49 1007.07 1007.62 1008.10 1008.51 1008.88 1009.25 1009.67 1010.15 1010.66 1011.17 1011.62 1011.95 1012.15 1012.22 1012.23 1012.24 1012.33 1012.55 1012.94 1013.48 1014.09 1014.72 1015.28 1015.72 1016.02 1016.19 1016.29 1016.35 1016.44
1006.55 1006.89 1007.20 1007.41 1007.47 1007.39 1007.20 1006.97 1006.78 1006.70 1006.79 1007.04 1007.42 1007.89 1008.38 1008.83 1009.23 1009.57 1009.88 1010.21 1010.58 1010.99 1011.44 1011.88 1012.25 1012.51 1012.65 1012.68 1012.65 1012.63 1012.69 1012.89 1013.24 1013.74 1014.34 1014.95 1015.50 1015.96 1016.28 1016.48 1016.59 1016.66 1016.74
1007.05 1007.42 1007.77 1008.04 1008.19 1008.21 1008.14 1008.04 1007.97 1007.99 1008.14 1008.42 1008.80 1009.23 1009.65 1010.04 1010.36 1010.64 1010.89 1011.16 1011.47 1011.83 1012.22 1012.61 1012.93 1013.16 1013.27 1013.28 1013.23 1013.19 1013.21 1013.36 1013.65 1014.08 1014.60 1015.16 1015.68 1016.13 1016.47 1016.70 1016.84 1016.94 1017.04
1007.44 1007.79 1008.13 1008.41 1008.60 1008.70 1008.74 1008.77 1008.83 1008.98 1009.23 1009.57 1009.98 1010.40 1010.80 1011.13 1011.40 1011.62 1011.81 1012.03 1012.29 1012.61 1012.97 1013.33 1013.65 1013.88 1014.00 1014.02 1013.98 1013.92 1013.90 1013.98 1014.17 1014.49 1014.91 1015.37 1015.82 1016.23 1016.57 1016.82 1017.01 1017.16 1017.28
1007.77 1008.06 1008.35 1008.59 1008.79 1008.94 1009.07 1009.21 1009.41 1009.68 1010.04 1010.46 1010.91 1011.35 1011.73 1012.03 1012.26 1012.43 1012.58 1012.76 1012.99 1013.29 1013.65 1014.02 1014.36 1014.63 1014.79 1014.85 1014.83 1014.77 1014.71 1014.71 1014.79 1014.98 1015.25 1015.58 1015.93 1016.28 1016.59 1016.86 1017.09 1017.28 1017.45
1008.09 1008.31 1008.51 1008.70 1008.87 1009.04 1009.23 1009.47 1009.77 1010.15 1010.60 1011.09 1011.58 1012.02 1012.39 1012.68 1012.87 1013.02 1013.15 1013.31 1013.54 1013.84 1014.21 1014.61 1015.00 1015.33 1015.56 1015.68 1015.71 1015.65 1015.57 1015.49 1015.47 1015.51 1015.63 1015.82 1016.06 1016.32 1016.59 1016.85 1017.10 1017.32 1017.53
1008.45 1008.59 1008.71 1008.84 1008.97 1009.13 1009.35 1009.64 1010.01 1010.46 1010.96 1011.49 1011.99 1012.44 1012.80 1013.06 1013.24 1013.37 1013.50 1013.66 1013.90 1014.23 1014.62 1015.07 1015.51 1015.90 1016.21 1016.40 1016.48 1016.46 1016.37 1016.25 1016.14 1016.07 1016.06 1016.12 1016.24 1016.41 1016.62 1016.86 1017.10 1017.34 1017.55
1008.85 1008.93 1008.99 1009.05 1009.14 1009.29 1009.51 1009.82 1010.21 1010.68 1011.20 1011.73 1012.22 1012.64 1012.97 1013.22 1013.39 1013.52 1013.66 1013.85 1014.11 1014.45 1014.88 1015.35 1015.84 1016.29 1016.65 1016.91 1017.05 1017.08 1017.02 1016.90 1016.76 1016.63 1016.54 1016.50 1016.53 1016.63 1016.78 1016.96 1017.18 1017.39 1017.59
1009.26 1009.32 1009.34 1009.37 1009.43 1009.55 1009.76 1010.06 1010.45 1010.90 1011.39 1011.87 1012.32 1012.69 1012.99 1013.21 1013.38 1013.52 1013.68 1013.89 1014.17 1014.54 1014.97 1015.46 1015.96 1016.43 1016.83 1017.14 1017.34 1017.44 1017.44 1017.37 1017.26 1017.14 1017.04 1016.97 1016.96 1017.00 1017.10 1017.24 1017.41 1017.57 1017.72
1009.61 1009.69 1009.72 1009.75 1009.80 1009.92 1010.12 1010.40 1010.76 1011.16 1011.59 1012.00 1012.37 1012.68 1012.93 1013.12 1013.29 1013.44 1013.62 1013.86 1014.15 1014.51 1014.94 1015.40 1015.87 1016.32 1016.72 1017.06 1017.32 1017.49 1017.59 1017.62 1017.61 1017.58 1017.54 1017.52 1017.52 1017.56 1017.63 1017.73 1017.83 1017.93 1018.00
1009.84 1009.99 1010.07 1010.13 1010.21 1010.34 1010.54 1010.81 1011.13 1011.48 1011.83 1012.16 1012.44 1012.68 1012.87 1013.04 1013.19 1013.36 1013.56 1013.80 1014.10 1014.44 1014.82 1015.22 1015.62 1016.02 1016.39 1016.72 1017.01 1017.26 1017.48 1017.65 1017.79 1017.91 1018.01 1018.10 1018.18 1018.26 1018.33 1018.40 1018.45 1018.47 1018.45
1009.92 1010.15 1010.31 1010.43 1010.57 1010.74 1010.97 1011.24 1011.53 1011.84 1012.12 1012.37 1012.58 1012.74 1012.88 1013.02 1013.16 1013.34 1013.55 1013.80 1014.08 1014.38 1014.69 1015.00 1015.30 1015.60 1015.90 1016.20 1016.51 1016.83 1017.16 1017.49 1017.81 1018.12 1018.40 1018.65 1018.86 1019.02 1019.13 1019.20 1019.21 1019.16 1019.05
1009.82 1010.15 1010.40 1010.61 1010.83 1011.07 1011.34 1011.63 1011.93 1012.21 1012.45 1012.65 1012.79 1012.90 1013.00 1013.11 1013.24 1013.42 1013.64 1013.88 1014.14 1014.38 1014.61 1014.82 1015.00 1015.18 1015.38 1015.62 1015.92 1016.28 1016.71 1017.19 1017.69 1018.20 1018.68 1019.11 1019.46 1019.74 1019.92 1020.01 1020.00 1019.91 1019.74
1009.60 1010.02 1010.36 1010.66 1010.96 1011.27 1011.61 1011.95 1012.28 1012.57 1012.80 1012.96 1013.07 1013.15 1013.22 1013.31 1013.44 1013.62 1013.83 1014.07 1014.29 1014.48 1014.63 1014.73 1014.80 1014.86 1014.95 1015.12 1015.38 1015.75 1016.24 1016.82 1017.48 1018.15 1018.81 1019.41 1019.92 1020.31 1020.57 1020.71 1020.72 1020.61 1020.41
1009.34 1009.81 1010.22 1010.59 1010.96 1011.35 1011.76 1012.17 1012.55 1012.87 1013.12 1013.29 1013.40 1013.46 1013.52 1013.61 1013.73 1013.91 1014.12 1014.34 1014.53 1014.68 1014.76 1014.77 1014.74 1014.70 1014.69 1014.77 1014.97 1015.33 1015.83 1016.47 1017.22 1018.01 1018.80 1019.53 1020.16 1020.65 1021.00 1021.20 1021.25 1021.17 1020.98
1009.12 1009.62 1010.05 1010.47 1010.89 1011.34 1011.82 1012.29 1012.73 1013.11 1013.40 1013.60 1013.73 1013.81 1013.87 1013.96 1014.08 1014.25 1014.45 1014.66 1014.83 1014.95 1014.98 1014.94 1014.83 1014.71 1014.62 1014.62 1014.76 1015.07 1015.55 1016.20 1016.96 1017.81 1018.66 1019.47 1020.18 1020.75 1021.18 1021.44 1021.55 1021.52 1021.38
Thickness
5817 5817 5814 5813 5812 5812 5812 5812 5812 5811 5811 5810 5810 5810 5809 5808 5807 5806 5805 5804 5803 5801 5800 5798 5796 5795 5793 5792 5791 5788 5786 5784 5782 5781 5779 5777 5776 5774 5773 5772 5770 5769 5768
5820 5817 5813 5813 5812 5812 5813 5813 5813 5812 5811 5810 5809 5809 5808 5807 5806 5806 5805 5804 5803 5801 5800 5798 5796 5795 5793 5792 5790 5788 5786 5784 5782 5780 5779 5777 5775 5774 5772 5771 5770 5768 5767
5821 5817 5814 5812 5813 5813 5814 5813 5813 5813 5811 5809 5808 5808 5807 5806 5806 5806 5806 5805 5803 5801 5800 5798 5796 5794 5793 5792 5789 5787 5785 5784 5782 5780 5778 5776 5775 5773 5771 5770 5769 5767 5766
5823 5818 5815 5812 5813 5813 5813 5813 5813 5812 5810 5809 5807 5807 5806 5806 5806 5806 5806 5805 5803 5801 5799 5798 5796 5794 5793 5791 5789 5787 5786 5784 5782 5780 5779 5777 5775 5772 5771 5769 5768 5766 5765
5823 5819 5814 5812 5812 5812 5812 5812 5812 5811 5809 5808 5807 5806 5805 5804 5804 5804 5804 5804 5802 5800 5799 5798 5797 5794 5792 5790 5788 5787 5786 5784 5782 5781 5779 5777 5775 5772 5770 5768 5767 5765 5764
5823 5820 5814 5813 5812 5812 5811 5811 5811 5810 5809 5807 5806 5805 5804 5804 5803 5803 5802 5802 5801 5799 5798 5797 5796 5794 5792 5790 5788 5787 5785 5784 5782 5781 5780 5777 5774 5772 5769 5767 5766 5764 5763
5824 5821 5815 5813 5812 5812 5811 5811 5810 5810 5809 5807 5806 5805 5804 5803 5802 5802 5801 5801 5799 5797 5796 5795 5795 5794 5791 5789 5788 5786 5786 5784 5783 5782 5780 5777 5774 5771 5769 5767 5765 5763 5762
5825 5822 5817 5815 5814 5813 5812 5811 5810 5809 5808 5807 5806 5804 5803 5803 5803 5801 5800 5799 5797 5794 5794 5794 5793 5791 5789 5788 5787 5786 5785 5784 5784 5783 5780 5777 5774 5772 5769 5767 5765 5763 5762
5828 5824 5821 5818 5815 5814 5813 5811 5810 5809 5809 5807 5806 5804 5803 5802 5803 5801 5799 5797 5795 5794 5793 5792 5790 5789 5788 5787 5786 5786 5784 5783 5783 5782 5780 5777 5774 5772 5770 5767 5765 5763 5761
5829 5826 5823 5822 5819 5816 5814 5812 5810 5809 5808 5807 5806 5804 5802 5801 5801 5799 5797 5795 5795 5794 5792 5790 5789 5788 5787 5786 5786 5785 5784 5783 5782 5782 5779 5777 5774 5772 5770 5767 5765 5763 5761
5826 5826 5825 5822 5821 5819 5817 5814 5811 5810 5808 5807 5805 5804 5802 5801 5800 5798 5797 5795 5794 5793 5791 5789 5788 5787 5786 5786 5786 5785 5783 5783 5783 5781 5779 5776 5774 5772 5770 5767 5765 5763 5761
5821 5824 5825 5822 5821 5820 5818 5815 5813 5812 5809 5807 5806 5804 5802 5802 5800 5798 5796 5795 5793 5792 5790 5789 5788 5787 5786 5786 5786 5785 5783 5783 5782 5780 5777 5775 5773 5771 5769 5767 5765 5763 5761
5823 5822 5823 5822 5820 5818 5816 5816 5814 5812 5810 5808 5806 5804 5803 5802 5800 5798 5797 5795 5793 5791 5790 5789 5788 5787 5787 5787 5786 5785 5784 5784 5782 5779 5776 5774 5773 5771 5769 5766 5765 5763 5761
5822 5821 5822 5822 5818 5816 5815 5814 5814 5812 5809 5807 5805 5804 5802 5800 5799 5797 5796 5795 5793 5792 5791 5790 5788 5787 5787 5787 5786 5785 5784 5783 5780 5778 5775 5773 5772 5770 5768 5766 5764 5763 5761
5820 5820 5819 5818 5816 5815 5814 5814 5813 5811 5809 5807 5805 5803 5802 5799 5797 5796 5794 5793 5792 5792 5791 5789 5788 5786 5785 5786 5785 5785 5784 5783 5780 5777 5774 5773 5772 5770 5768 5766 5765 5763 5761
5820 5819 5819 5818 5815 5814 5813 5811 5811 5810 5808 5807 5804 5803 5801 5799 5796 5794 5792 5791 5791 5790 5790 5788 5786 5785 5784 5784 5783 5783 5782 5781 5779 5778 5775 5772 5771 5769 5768 5766 5764 5763 5760
5820 5819 5818 5818 5815 5813 5812 5811 5811 5809 5808 5805 5803 5801 5800 5798 5796 5795 5792 5791 5790 5790 5789 5787 5786 5785 5784 5782 5781 5781 5781 5780 5779 5778 5775 5773 5770 5768 5767 5766 5764 5762 5760
5821 5818 5818 5819 5814 5812 5811 5810 5810 5809 5807 5804 5802 5800 5798 5797 5795 5794 5792 5791 5790 5789 5788 5786 5784 5782 5780 5780 5779 5780 5780 5780 5779 5778 5777 5775 5772 5770 5767 5765 5764 5762 5760
5821 5818 5815 5814 5812 5811 5810 5809 5808 5806 5805 5803 5801 5799 5797 5796 5795 5793 5791 5790 5790 5788 5787 5786 5783 5781 5779 5779 5779 5780 5781 5780 5780 5780 5778 5776 5774 5771 5768 5765 5764 5762 5760
5822 5818 5815 5813 5811 5810 5809 5807 5805 5804 5803 5802 5800 5798 5796 5795 5794 5793 5792 5790 5789 5787 5785 5783 5781 5781 5780 5779 5781 5780 5780 5781 5781 5780 5779 5777 5775 5773 5770 5767 5763 5761 5759
5821 5817 5813 5810 5809 5807 5804 5802 5799 5798 5798 5798 5798 5796 5795 5794 5793 5792 5791 5789 5787 5784 5782 5782 5780 5779 5778 5779 5775 5773 5776 5780 5780 5779 5779 5777 5776 5774 5771 5768 5765 5763 5760
5819 5816 5813 5809 5808 5806 5804 5802 5800 5799 5797 5798 5797 5795 5793 5792 5791 5791 5789 5787 5785 5783 5781 5781 5779 5776 5777 5778 5772 5767 5764 5767 5773 5778 5777 5775 5774 5773 5771 5768 5766 5764 5761
5818 5815 5813 5809 5807 5805 5804 5803 5800 5798 5795 5793 5791 5790 5790 5789 5789 5787 5786 5785 5784 5782 5780 5779 5779 5775 5772 5775 5776 5768 5759 5756 5762 5769 5773 5773 5773 5771 5770 5768 5766 5763 5760
5820 5817 5812 5808 5806 5804 5803 5799 5795 5791 5788 5789 5789 5789 5788 5788 5787 5786 5785 5783 5781 5780 5778 5778 5778 5776 5773 5769 5773 5774 5772 5768 5759 5755 5763 5767 5769 5768 5768 5768 5764 5761 5759
5823 5817 5812 5807 5804 5802 5801 5798 5794 5791 5789 5789 5789 5787 5785 5786 5785 5784 5783 5781 5778 5776 5776 5776 5775 5774 5772 5770 5769 5770 5769 5769 5767 5758 5752 5756 5761 5765 5766 5764 5762 5759 5755
5822 5818 5812 5806 5802 5801 5798 5796 5792 5788 5787 5785 5784 5783 5782 5782 5782 5782 5780 5778 5776 5774 5774 5774 5773 5771 5770 5769 5768 5767 5765 5763 5760 5759 5753 5752 5752 5758 5762 5762 5760 5756 5753